Time,TemperatureF,DewpointF,PressureIn,WindDirection,WindDirectionDegrees,WindSpeedMPH,WindSpeedGustMPH,Humidity,HourlyPrecipIn,Conditions,Clouds,dailyrainin,SoftwareType,DateUTC
2013-04-09 00:02:00,65.0,57.0,29.88,South,170,9.0,9.0,75,0.00,,,0.47,,2013-04-09 05:02:00,
2013-04-09 00:12:00,65.0,57.0,29.88,South,170,9.0,9.0,75,0.00,,,0.47,,2013-04-09 05:12:00,
2013-04-09 00:22:00,65.0,57.0,29.88,South,170,9.0,9.0,75,0.00,,,0.47,,2013-04-09 05:22:00,
2013-04-09 00:32:00,65.0,57.0,29.87,SSE,150,8.0,9.0,75,0.00,,,0.47,,2013-04-09 05:32:00,
2013-04-09 00:42:00,65.0,57.0,29.87,SSE,150,8.0,8.0,75,0.00,,,0.47,,2013-04-09 05:42:00,
2013-04-09 00:52:00,65.0,57.0,29.87,SSE,150,8.0,8.0,75,0.00,,,0.47,,2013-04-09 05:52:00,
2013-04-09 01:02:00,65.0,57.0,29.87,SSE,150,8.0,8.0,75,0.00,,,0.47,,2013-04-09 06:02:00,
2013-04-09 01:12:00,65.0,57.0,29.87,SSE,150,8.0,8.0,75,0.00,,,0.47,,2013-04-09 06:12:00,
2013-04-09 01:22:00,65.0,57.0,29.87,SSE,150,8.0,8.0,75,0.00,,,0.47,,2013-04-09 06:22:00,
2013-04-09 01:32:00,65.0,56.0,29.88,South,170,9.0,9.0,72,0.00,,,0.47,,2013-04-09 06:32:00,
2013-04-09 01:42:00,65.0,56.0,29.88,South,170,9.0,9.0,72,0.00,,,0.47,,2013-04-09 06:42:00,
2013-04-09 01:52:00,65.0,56.0,29.88,South,170,9.0,9.0,72,0.00,,,0.47,,2013-04-09 06:52:00,
2013-04-09 02:02:00,65.0,56.0,29.88,South,170,9.0,9.0,72,0.00,,,0.47,,2013-04-09 07:02:00,
2013-04-09 02:12:00,65.0,56.0,29.88,South,170,9.0,9.0,72,0.00,,,0.47,,2013-04-09 07:12:00,
2013-04-09 02:22:00,65.0,56.0,29.88,South,170,9.0,9.0,72,0.00,,,0.47,,2013-04-09 07:22:00,
2013-04-09 02:32:00,64.0,55.0,29.86,SSE,160,9.0,9.0,72,0.00,,,0.47,,2013-04-09 07:32:00,
2013-04-09 02:42:00,64.0,55.0,29.86,SSE,160,9.0,9.0,72,0.00,,,0.47,,2013-04-09 07:42:00,
2013-04-09 02:52:00,64.0,55.0,29.86,SSE,160,9.0,9.0,72,0.00,,,0.47,,2013-04-09 07:52:00,
2013-04-09 03:02:00,64.0,55.0,29.86,SSE,160,9.0,9.0,72,0.00,,,0.40,,2013-04-09 08:02:00,
2013-04-09 03:12:00,64.0,55.0,29.86,SSE,160,9.0,9.0,72,0.00,,,0.40,,2013-04-09 08:12:00,
2013-04-09 03:22:00,64.0,55.0,29.86,SSE,160,9.0,9.0,72,0.00,,,0.33,,2013-04-09 08:22:00,
2013-04-09 03:32:00,61.0,54.0,29.85,ESE,120,3.0,9.0,77,0.00,,,0.33,,2013-04-09 08:32:00,
2013-04-09 03:42:00,61.0,54.0,29.85,ESE,120,3.0,9.0,77,0.00,,,0.33,,2013-04-09 08:42:00,
2013-04-09 03:52:00,61.0,54.0,29.85,ESE,120,3.0,3.0,77,0.00,,,0.33,,2013-04-09 08:52:00,
2013-04-09 04:02:00,61.0,54.0,29.85,ESE,120,3.0,3.0,77,0.00,,,0.33,,2013-04-09 09:02:00,
2013-04-09 04:12:00,61.0,54.0,29.85,ESE,120,3.0,3.0,77,0.00,,,0.22,,2013-04-09 09:12:00,
2013-04-09 04:22:00,61.0,54.0,29.85,ESE,120,3.0,3.0,77,0.00,,,0.22,,2013-04-09 09:22:00,
2013-04-09 04:33:00,61.0,55.0,29.85,East,80,7.0,7.0,80,0.00,,,0.22,,2013-04-09 09:33:00,
2013-04-09 04:43:00,61.0,55.0,29.85,East,80,7.0,7.0,80,0.00,,,0.22,,2013-04-09 09:43:00,
2013-04-09 04:53:00,61.0,55.0,29.85,East,80,7.0,7.0,80,0.00,,,0.22,,2013-04-09 09:53:00,
2013-04-09 05:03:00,61.0,55.0,29.85,East,80,7.0,7.0,80,0.00,,,0.22,,2013-04-09 10:03:00,
2013-04-09 05:12:00,61.0,55.0,29.85,East,80,7.0,7.0,80,0.00,,,0.22,,2013-04-09 10:12:00,
2013-04-09 05:23:00,61.0,55.0,29.85,East,80,7.0,7.0,80,0.00,,,0.17,,2013-04-09 10:23:00,
2013-04-09 05:33:00,61.0,55.0,29.85,East,100,6.0,7.0,80,0.00,,,0.17,,2013-04-09 10:33:00,
2013-04-09 05:42:00,61.0,55.0,29.85,East,100,6.0,7.0,80,0.00,,,0.17,,2013-04-09 10:42:00,
2013-04-09 05:53:00,61.0,55.0,29.85,East,100,6.0,6.0,80,0.00,,,0.17,,2013-04-09 10:53:00,
2013-04-09 06:02:00,61.0,55.0,29.85,East,100,6.0,6.0,80,0.00,,,0.17,,2013-04-09 11:02:00,
2013-04-09 06:12:00,61.0,55.0,29.85,East,100,6.0,6.0,80,0.00,,,0.17,,2013-04-09 11:12:00,
2013-04-09 06:22:00,61.0,55.0,29.85,East,100,6.0,6.0,80,0.00,,,0.10,,2013-04-09 11:22:00,
2013-04-09 06:32:00,60.0,55.0,29.85,ESE,110,8.0,8.0,83,0.00,,,0.10,,2013-04-09 11:32:00,
2013-04-09 06:42:00,60.0,55.0,29.85,ESE,110,8.0,8.0,83,0.00,,,0.10,,2013-04-09 11:42:00,
2013-04-09 06:52:00,60.0,55.0,29.85,ESE,110,8.0,8.0,83,0.00,,,0.10,,2013-04-09 11:52:00,
2013-04-09 07:02:00,60.0,55.0,29.85,ESE,110,8.0,8.0,83,0.00,,,0.10,,2013-04-09 12:02:00,
2013-04-09 07:12:00,60.0,55.0,29.85,ESE,110,8.0,8.0,83,0.00,,,0.10,,2013-04-09 12:12:00,
2013-04-09 07:22:00,60.0,55.0,29.85,ESE,110,8.0,8.0,83,0.00,,,0.03,,2013-04-09 12:22:00,
2013-04-09 07:32:00,62.0,55.0,29.85,SE,130,10.0,10.0,77,0.00,,,0.03,,2013-04-09 12:32:00,
2013-04-09 07:42:00,62.0,55.0,29.85,SE,130,10.0,10.0,77,0.00,,,0.03,,2013-04-09 12:42:00,
2013-04-09 07:53:00,62.0,55.0,29.85,SE,130,10.0,10.0,77,0.00,,,0.03,,2013-04-09 12:53:00,
2013-04-09 08:02:00,62.0,55.0,29.85,SE,130,10.0,10.0,77,0.00,,,0.03,,2013-04-09 13:02:00,
2013-04-09 08:12:00,62.0,55.0,29.85,SE,130,10.0,10.0,77,0.00,,,0.03,,2013-04-09 13:12:00,
2013-04-09 08:23:00,62.0,55.0,29.85,SE,130,10.0,10.0,77,0.00,,,0.03,,2013-04-09 13:23:00,
2013-04-09 08:32:00,63.0,55.0,29.85,SE,140,7.0,10.0,75,0.00,,,0.02,,2013-04-09 13:32:00,
2013-04-09 08:42:00,63.0,55.0,29.85,SE,140,7.0,10.0,75,0.00,,,0.02,,2013-04-09 13:42:00,
2013-04-09 08:53:00,63.0,55.0,29.85,SE,140,7.0,7.0,75,0.00,,,0.02,,2013-04-09 13:53:00,
2013-04-09 09:03:00,63.0,55.0,29.85,SE,140,7.0,7.0,75,0.00,,,0.02,,2013-04-09 14:03:00,
2013-04-09 09:12:00,63.0,55.0,29.85,SE,140,7.0,7.0,75,0.00,,,0.02,,2013-04-09 14:12:00,
2013-04-09 09:22:00,63.0,55.0,29.85,SE,140,7.0,7.0,75,0.00,,,0.01,,2013-04-09 14:22:00,
2013-04-09 09:32:00,64.0,56.0,29.84,South,170,17.0,17.0,74,0.00,,,0.01,,2013-04-09 14:32:00,
2013-04-09 09:42:00,64.0,56.0,29.84,South,170,17.0,17.0,74,0.00,,,0.01,,2013-04-09 14:42:00,
2013-04-09 09:52:00,64.0,56.0,29.84,South,170,17.0,17.0,74,0.00,,,0.01,,2013-04-09 14:52:00,
2013-04-09 10:02:00,64.0,56.0,29.84,South,170,17.0,17.0,74,0.00,,,0.01,,2013-04-09 15:02:00,
2013-04-09 10:12:00,64.0,56.0,29.84,South,170,17.0,17.0,74,0.00,,,0.01,,2013-04-09 15:12:00,
2013-04-09 10:22:00,64.0,56.0,29.84,South,170,17.0,17.0,74,0.00,,,0.00,,2013-04-09 15:22:00,
2013-04-09 10:33:00,67.0,57.0,29.82,South,180,14.0,17.0,70,0.00,,,0.00,,2013-04-09 15:33:00,
2013-04-09 10:43:00,67.0,57.0,29.82,South,180,14.0,17.0,70,0.00,,,0.00,,2013-04-09 15:43:00,
2013-04-09 10:53:00,67.0,57.0,29.82,South,180,14.0,14.0,70,0.00,,,0.00,,2013-04-09 15:53:00,
2013-04-09 11:03:00,67.0,57.0,29.82,South,180,14.0,14.0,70,0.00,,,0.00,,2013-04-09 16:03:00,
2013-04-09 11:13:00,67.0,57.0,29.82,South,180,14.0,14.0,70,0.00,,,0.00,,2013-04-09 16:13:00,
2013-04-09 11:23:00,67.0,57.0,29.82,South,180,14.0,14.0,70,0.00,,,0.00,,2013-04-09 16:23:00,
2013-04-09 11:33:00,72.0,59.0,29.80,South,190,18.0,30.0,63,0.00,,,0.00,,2013-04-09 16:33:00,
2013-04-09 11:42:00,72.0,59.0,29.80,South,190,18.0,30.0,63,0.00,,,0.00,,2013-04-09 16:42:00,
2013-04-09 11:53:00,72.0,59.0,29.80,South,190,18.0,30.0,63,0.00,,,0.00,,2013-04-09 16:53:00,
2013-04-09 12:02:00,72.0,59.0,29.80,South,190,18.0,30.0,63,0.00,,,0.00,,2013-04-09 17:02:00,
2013-04-09 12:12:00,72.0,59.0,29.80,South,190,18.0,30.0,63,0.00,,,0.00,,2013-04-09 17:12:00,
2013-04-09 12:23:00,72.0,59.0,29.80,South,190,18.0,30.0,63,0.00,,,0.00,,2013-04-09 17:23:00,
2013-04-09 12:32:00,73.0,58.0,29.81,SSW,200,22.0,37.0,59,0.00,,,0.00,,2013-04-09 17:32:00,
2013-04-09 12:42:00,73.0,58.0,29.81,SSW,200,22.0,37.0,59,0.00,,,0.00,,2013-04-09 17:42:00,
2013-04-09 12:54:00,73.0,58.0,29.81,SSW,200,22.0,37.0,59,0.00,,,0.00,,2013-04-09 17:54:00,
2013-04-09 13:02:00,73.0,58.0,29.81,SSW,200,22.0,37.0,59,0.00,,,0.00,,2013-04-09 18:02:00,
2013-04-09 13:12:00,73.0,58.0,29.81,SSW,200,22.0,37.0,59,0.00,,,0.00,,2013-04-09 18:12:00,
2013-04-09 13:22:00,73.0,58.0,29.81,SSW,200,22.0,37.0,59,0.00,,,0.00,,2013-04-09 18:22:00,
2013-04-09 13:32:00,74.0,58.0,29.81,SW,220,22.0,37.0,57,0.00,,,0.00,,2013-04-09 18:32:00,
2013-04-09 13:43:00,74.0,58.0,29.81,SW,220,22.0,37.0,57,0.00,,,0.00,,2013-04-09 18:43:00,
2013-04-09 13:53:00,74.0,58.0,29.81,SW,220,22.0,35.0,57,0.00,,,0.00,,2013-04-09 18:53:00,
2013-04-09 14:02:00,74.0,58.0,29.81,SW,220,22.0,35.0,57,0.00,,,0.00,,2013-04-09 19:02:00,
2013-04-09 14:12:00,74.0,58.0,29.81,SW,220,22.0,35.0,57,0.00,,,0.00,,2013-04-09 19:12:00,
2013-04-09 14:22:00,74.0,58.0,29.81,SW,220,22.0,35.0,57,0.00,,,0.00,,2013-04-09 19:22:00,
2013-04-09 14:32:00,74.0,58.0,29.81,SW,220,22.0,35.0,57,0.00,,,0.00,,2013-04-09 19:32:00,
2013-04-09 14:42:00,74.0,58.0,29.81,SW,220,22.0,35.0,57,0.00,,,0.00,,2013-04-09 19:42:00,
2013-04-09 14:52:00,77.0,57.0,29.80,SW,220,24.0,35.0,51,0.00,,,0.00,,2013-04-09 19:52:00,
2013-04-09 15:02:00,77.0,57.0,29.80,SW,220,24.0,35.0,51,0.00,,,0.00,,2013-04-09 20:02:00,
2013-04-09 15:12:00,77.0,57.0,29.80,SW,220,24.0,35.0,51,0.00,,,0.00,,2013-04-09 20:12:00,
2013-04-09 15:22:00,77.0,57.0,29.80,SW,220,24.0,35.0,51,0.00,,,0.00,,2013-04-09 20:22:00,
2013-04-09 15:33:00,77.0,56.0,29.79,SW,230,20.0,35.0,48,0.00,,,0.00,,2013-04-09 20:33:00,
2013-04-09 15:42:00,77.0,56.0,29.79,SW,230,20.0,35.0,48,0.00,,,0.00,,2013-04-09 20:42:00,
2013-04-09 15:52:00,77.0,56.0,29.79,SW,230,20.0,32.0,48,0.00,,,0.00,,2013-04-09 20:52:00,
2013-04-09 16:02:00,77.0,56.0,29.79,SW,230,20.0,32.0,48,0.00,,,0.00,,2013-04-09 21:02:00,
2013-04-09 16:13:00,77.0,56.0,29.79,SW,230,20.0,32.0,48,0.00,,,0.00,,2013-04-09 21:13:00,
2013-04-09 16:22:00,77.0,56.0,29.79,SW,230,20.0,32.0,48,0.00,,,0.00,,2013-04-09 21:22:00,
2013-04-09 16:33:00,77.0,56.0,29.79,SW,220,17.0,32.0,48,0.00,,,0.00,,2013-04-09 21:33:00,
2013-04-09 16:42:00,77.0,56.0,29.79,SW,220,17.0,32.0,48,0.00,,,0.00,,2013-04-09 21:42:00,
2013-04-09 16:53:00,77.0,56.0,29.79,SW,220,17.0,29.0,48,0.00,,,0.00,,2013-04-09 21:53:00,
2013-04-09 17:03:00,77.0,56.0,29.79,SW,220,17.0,29.0,48,0.00,,,0.00,,2013-04-09 22:03:00,
2013-04-09 17:12:00,77.0,56.0,29.79,SW,220,17.0,29.0,48,0.00,,,0.00,,2013-04-09 22:12:00,
2013-04-09 17:23:00,77.0,56.0,29.79,SW,220,17.0,29.0,48,0.00,,,0.00,,2013-04-09 22:23:00,
2013-04-09 17:33:00,77.0,57.0,29.79,SW,230,16.0,29.0,50,0.00,,,0.00,,2013-04-09 22:33:00,
2013-04-09 17:42:00,77.0,57.0,29.79,SW,230,16.0,29.0,50,0.00,,,0.00,,2013-04-09 22:42:00,
2013-04-09 17:53:00,77.0,57.0,29.79,SW,230,16.0,16.0,50,0.00,,,0.00,,2013-04-09 22:53:00,
2013-04-09 18:03:00,77.0,57.0,29.79,SW,230,16.0,16.0,50,0.00,,,0.00,,2013-04-09 23:03:00,
2013-04-09 18:12:00,77.0,57.0,29.79,SW,230,16.0,16.0,50,0.00,,,0.00,,2013-04-09 23:12:00,
2013-04-09 18:22:00,77.0,57.0,29.79,SW,230,16.0,16.0,50,0.00,,,0.00,,2013-04-09 23:22:00,
2013-04-09 18:32:00,76.0,58.0,29.80,SW,230,13.0,16.0,53,0.00,,,0.00,,2013-04-09 23:32:00,
2013-04-09 18:42:00,76.0,58.0,29.80,SW,230,13.0,16.0,53,0.00,,,0.00,,2013-04-09 23:42:00,
2013-04-09 18:53:00,76.0,58.0,29.80,SW,230,13.0,13.0,53,0.00,,,0.00,,2013-04-09 23:53:00,
2013-04-09 19:03:00,76.0,58.0,29.80,SW,230,13.0,13.0,53,0.00,,,0.00,,2013-04-10 00:03:00,
2013-04-09 19:12:00,76.0,58.0,29.80,SW,230,13.0,13.0,53,0.00,,,0.00,,2013-04-10 00:12:00,
2013-04-09 19:22:00,76.0,58.0,29.80,SW,230,13.0,13.0,53,0.00,,,0.00,,2013-04-10 00:22:00,
2013-04-09 19:32:00,73.0,58.0,29.82,South,190,13.0,13.0,59,0.00,,,0.00,,2013-04-10 00:32:00,
2013-04-09 19:42:00,73.0,58.0,29.82,South,190,13.0,13.0,59,0.00,,,0.00,,2013-04-10 00:42:00,
2013-04-09 19:52:00,73.0,58.0,29.82,South,190,13.0,13.0,59,0.00,,,0.00,,2013-04-10 00:52:00,
2013-04-09 20:02:00,73.0,58.0,29.82,South,190,13.0,13.0,59,0.00,,,0.00,,2013-04-10 01:02:00,
2013-04-09 20:12:00,73.0,58.0,29.82,South,190,13.0,13.0,59,0.00,,,0.00,,2013-04-10 01:12:00,
2013-04-09 20:23:00,73.0,58.0,29.82,South,190,13.0,13.0,59,0.00,,,0.00,,2013-04-10 01:23:00,
2013-04-09 20:32:00,70.0,59.0,29.81,South,170,8.0,13.0,68,0.00,,,0.00,,2013-04-10 01:32:00,
2013-04-09 20:42:00,70.0,59.0,29.81,South,170,8.0,13.0,68,0.00,,,0.00,,2013-04-10 01:42:00,
2013-04-09 20:53:00,70.0,59.0,29.81,South,170,8.0,8.0,68,0.00,,,0.00,,2013-04-10 01:53:00,
2013-04-09 21:02:00,70.0,59.0,29.81,South,170,8.0,8.0,68,0.00,,,0.00,,2013-04-10 02:02:00,
2013-04-09 21:12:00,70.0,59.0,29.81,South,170,8.0,8.0,68,0.00,,,0.00,,2013-04-10 02:12:00,
2013-04-09 21:22:00,70.0,59.0,29.81,South,170,8.0,8.0,68,0.00,,,0.00,,2013-04-10 02:22:00,
2013-04-09 21:32:00,69.0,59.0,29.84,South,170,5.0,8.0,70,0.00,,,0.00,,2013-04-10 02:32:00,
2013-04-09 21:42:00,69.0,59.0,29.84,South,170,5.0,8.0,70,0.00,,,0.00,,2013-04-10 02:42:00,
2013-04-09 21:52:00,69.0,59.0,29.84,South,170,5.0,5.0,70,0.00,,,0.00,,2013-04-10 02:52:00,
2013-04-09 22:02:00,69.0,59.0,29.84,South,170,5.0,5.0,70,0.00,,,0.00,,2013-04-10 03:02:00,
2013-04-09 22:12:00,69.0,59.0,29.84,South,170,5.0,5.0,70,0.00,,,0.00,,2013-04-10 03:12:00,
2013-04-09 22:22:00,69.0,59.0,29.84,South,170,5.0,5.0,70,0.00,,,0.00,,2013-04-10 03:22:00,
2013-04-09 22:33:00,69.0,59.0,29.84,South,170,3.0,5.0,70,0.00,,,0.00,,2013-04-10 03:33:00,
2013-04-09 22:43:00,69.0,59.0,29.84,South,170,3.0,5.0,70,0.00,,,0.00,,2013-04-10 03:43:00,
2013-04-09 22:53:00,69.0,59.0,29.84,South,170,3.0,3.0,70,0.00,,,0.00,,2013-04-10 03:53:00,
2013-04-09 23:03:00,69.0,59.0,29.84,South,170,3.0,3.0,70,0.00,,,0.00,,2013-04-10 04:03:00,
2013-04-09 23:13:00,69.0,59.0,29.84,South,170,3.0,3.0,70,0.00,,,0.00,,2013-04-10 04:13:00,
2013-04-09 23:23:00,69.0,59.0,29.84,South,170,3.0,3.0,70,0.00,,,0.00,,2013-04-10 04:23:00,
2013-04-09 23:33:00,68.0,59.0,29.84,SSE,160,5.0,5.0,72,0.00,,,0.00,,2013-04-10 04:33:00,
2013-04-09 23:42:00,68.0,59.0,29.84,SSE,160,5.0,5.0,72,0.00,,,0.00,,2013-04-10 04:42:00,
2013-04-09 23:53:00,68.0,59.0,29.84,SSE,160,5.0,5.0,72,0.00,,,0.00,,2013-04-10 04:53:00,